| time (UTC) | temp F | wind direction | speed MPH | gust MPH | rain 1hr in | rain 24hr in | rain mn in | humidity % | barometer mb |
| 20260905170041 | 59 | 272 | 1.0 | 7.0 | 0.00 | 0.05 | 0.00 | 92 | 1005.4 |
| 20260905164541 | 59 | 240 | 2.0 | 10.0 | 0.00 | 0.05 | 0.00 | 92 | 1005.4 |
| 20260905163040 | 59 | 221 | 3.0 | 9.0 | 0.00 | 0.05 | 0.00 | 92 | 1005.2 |
| 20260905161537 | 59 | 297 | 1.0 | 8.0 | 0.00 | 0.05 | 0.00 | 90 | 1005.0 |
| 20260905160036 | 60 | 269 | 1.0 | 6.0 | 0.00 | 0.05 | 0.00 | 89 | 1004.8 |
| 20260905154536 | 61 | 249 | 2.0 | 5.0 | 0.00 | 0.05 | 0.00 | 90 | 1004.6 |
| 20260905153034 | 60 | 284 | 1.0 | 4.0 | 0.00 | 0.05 | 0.00 | 89 | 1004.5 |
| 20260905151533 | 60 | 286 | 1.0 | 7.0 | 0.00 | 0.05 | 0.00 | 91 | 1004.2 |
| 20260905150032 | 60 | 232 | 0.0 | 4.0 | 0.00 | 0.05 | 0.00 | 91 | 1004.3 |
| 20260905144532 | 59 | 287 | 0.0 | 4.0 | 0.00 | 0.05 | 0.00 | 90 | 1004.5 |
| 20260905143036 | 60 | 267 | 0.0 | 6.0 | 0.00 | 0.05 | 0.00 | 90 | 1004.4 |
| 20260905141531 | 60 | 263 | 3.0 | 8.0 | 0.00 | 0.05 | 0.00 | 88 | 1004.4 |
| 20260905140032 | 61 | 258 | 2.0 | 8.0 | 0.00 | 0.05 | 0.00 | 88 | 1004.5 |
| 20260905134535 | 61 | 215 | 3.0 | 8.0 | 0.00 | 0.05 | 0.00 | 88 | 1004.5 |
| 20260905133029 | 60 | 283 | 1.0 | 4.0 | 0.00 | 0.05 | 0.00 | 88 | 1004.4 |
| 20260905131528 | 61 | 269 | 2.0 | 8.0 | 0.00 | 0.05 | 0.00 | 87 | 1004.2 |
| 20260905130025 | 61 | 11 | 2.0 | 5.0 | 0.00 | 0.05 | 0.00 | 87 | 1003.8 |
| 20260905124533 | 61 | 294 | 1.0 | 7.0 | 0.00 | 0.05 | 0.00 | 87 | 1003.8 |
| 20260905123022 | 60 | 257 | 2.0 | 9.0 | 0.00 | 0.05 | 0.00 | 86 | 1003.6 |
| 20260905121521 | 61 | 301 | 2.0 | 9.0 | 0.00 | 0.05 | 0.00 | 85 | 1003.6 |
| 20260905120019 | 62 | 276 | 3.0 | 9.0 | 0.00 | 0.05 | 0.00 | 85 | 1003.4 |
| 20260905114517 | 62 | 284 | 2.0 | 9.0 | 0.00 | 0.05 | 0.00 | 85 | 1003.3 |
| 20260905113014 | 61 | 267 | 3.0 | 10.0 | 0.00 | 0.05 | 0.00 | 86 | 1003.0 |
| 20260905111513 | 61 | 280 | 3.0 | 9.0 | 0.00 | 0.05 | 0.00 | 87 | 1002.9 |
| 20260905110010 | 60 | 271 | 3.0 | 10.0 | 0.00 | 0.06 | 0.00 | 88 | 1002.8 |
| 20260905104510 | 60 | 277 | 3.0 | 13.0 | 0.00 | 0.06 | 0.00 | 89 | 1002.7 |
| 20260905103006 | 60 | 282 | 3.0 | 12.0 | 0.00 | 0.06 | 0.00 | 88 | 1002.4 |
| 20260905101502 | 60 | 319 | 4.0 | 14.0 | 0.00 | 0.06 | 0.00 | 87 | 1002.2 |
| 20260905100002 | 60 | 327 | 4.0 | 12.0 | 0.00 | 0.06 | 0.00 | 87 | 1002.0 |
| 20260905094558 | 59 | 288 | 5.0 | 14.0 | 0.00 | 0.06 | 0.00 | 87 | 1001.8 |
| 20260905093110 | 59 | 290 | 3.0 | 12.0 | 0.00 | 0.06 | 0.00 | 88 | 1001.7 |
| 20260905091603 | 58 | 315 | 5.0 | 12.0 | 0.00 | 0.06 | 0.00 | 89 | 1001.6 |
| 20260905090051 | 58 | 321 | 6.0 | 16.0 | 0.00 | 0.06 | 0.00 | 89 | 1001.3 |
| 20260905084549 | 58 | 286 | 3.0 | 14.0 | 0.00 | 0.06 | 0.00 | 89 | 1001.1 |
| 20260905083047 | 58 | 309 | 3.0 | 13.0 | 0.00 | 0.06 | 0.00 | 89 | 1001.0 |
| 20260905081546 | 58 | 300 | 4.0 | 13.0 | 0.00 | 0.06 | 0.00 | 90 | 1000.7 |
| 20260905080042 | 57 | 238 | 4.0 | 16.0 | 0.00 | 0.09 | 0.00 | 90 | 1000.4 |
| 20260905074541 | 57 | 272 | 5.0 | 14.0 | 0.00 | 0.09 | 0.00 | 89 | 1000.2 |
| 20260905073040 | 57 | 327 | 4.0 | 16.0 | 0.00 | 0.09 | 0.00 | 90 | 999.9 |
| 20260905071537 | 57 | 292 | 5.0 | 17.0 | 0.00 | 0.09 | 0.00 | 90 | 1000.0 |
| 20260905070041 | 57 | 313 | 4.0 | 9.0 | 0.00 | 0.09 | 0.00 | 89 | 999.8 |
| 20260905064535 | 57 | 316 | 7.0 | 18.0 | 0.00 | 0.09 | 0.00 | 89 | 999.6 |
| 20260905063032 | 57 | 274 | 4.0 | 17.0 | 0.00 | 0.09 | 0.00 | 90 | 999.4 |
| 20260905061530 | 57 | 302 | 6.0 | 17.0 | 0.00 | 0.09 | 0.00 | 90 | 999.2 |
| 20260905060027 | 57 | 269 | 5.0 | 14.0 | 0.00 | 0.09 | 0.00 | 89 | 998.9 |
| 20260905054532 | 57 | 215 | 4.0 | 17.0 | 0.00 | 0.09 | 0.00 | 89 | 998.7 |
| 20260905053023 | 57 | 288 | 2.0 | 11.0 | 0.00 | 0.09 | 0.00 | 89 | 998.6 |
| 20260905051522 | 57 | 272 | 5.0 | 15.0 | 0.00 | 0.09 | 0.00 | 89 | 998.5 |
| 20260905050023 | 57 | 296 | 3.0 | 12.0 | 0.00 | 0.09 | 0.00 | 89 | 998.4 |
| 20260905044518 | 57 | 275 | 3.0 | 13.0 | 0.00 | 0.09 | 0.00 | 89 | 998.2 |
| 20260905043018 | 57 | 267 | 4.0 | 11.0 | 0.00 | 0.09 | 0.00 | 89 | 998.2 |
| 20260905041513 | 57 | 267 | 4.0 | 16.0 | 0.00 | 0.09 | 0.00 | 88 | 998.0 |
| 20260905040017 | 57 | 254 | 4.0 | 12.0 | 0.00 | 0.09 | 0.00 | 88 | 997.9 |
| 20260905034519 | 57 | 227 | 2.0 | 11.0 | 0.00 | 0.09 | 0.00 | 88 | 997.7 |
| 20260905033007 | 57 | 236 | 3.0 | 11.0 | 0.00 | 0.09 | 0.00 | 89 | 997.6 |
| 20260905031505 | 57 | 265 | 4.0 | 11.0 | 0.00 | 0.09 | 0.00 | 88 | 997.6 |
| 20260905030003 | 58 | 257 | 4.0 | 11.0 | 0.00 | 0.09 | 0.00 | 89 | 997.5 |
| 20260905024604 | 58 | 255 | 3.0 | 12.0 | 0.00 | 0.09 | 0.00 | 89 | 997.4 |
| 20260905023101 | 58 | 252 | 3.0 | 11.0 | 0.00 | 0.09 | 0.00 | 89 | 997.4 |
| 20260905021559 | 58 | 246 | 4.0 | 12.0 | 0.00 | 0.09 | 0.00 | 89 | 997.3 |
| 20260905020057 | 58 | 275 | 3.0 | 11.0 | 0.00 | 0.10 | 0.00 | 89 | 997.1 |
| 20260905014559 | 58 | 232 | 3.0 | 11.0 | 0.00 | 0.10 | 0.00 | 89 | 997.2 |
| 20260905013059 | 59 | 267 | 1.0 | 13.0 | 0.00 | 0.10 | 0.00 | 88 | 997.1 |
| 20260905011553 | 59 | 269 | 5.0 | 13.0 | 0.00 | 0.10 | 0.00 | 88 | 997.2 |
| 20260905003038 | 58 | 263 | 2.0 | 9.0 | 0.00 | 0.10 | 0.00 | 88 | 996.9 |
| 20260904234522 | 59 | 280 | 1.0 | 10.0 | 0.00 | 0.12 | 0.00 | 87 | 996.9 |
| 20260904233020 | 58 | 277 | 2.0 | 7.0 | 0.00 | 0.12 | 0.00 | 87 | 997.0 |
| 20260904231519 | 58 | 279 | 1.0 | 10.0 | 0.00 | 0.12 | 0.00 | 87 | 996.9 |
| 20260904230029 | 58 | 235 | 1.0 | 8.0 | 0.00 | 0.12 | 0.00 | 87 | 997.0 |
| 20260904224525 | 58 | 225 | 1.0 | 9.0 | 0.00 | 0.12 | 0.00 | 87 | 997.1 |
| 20260904223015 | 58 | 284 | 2.0 | 10.0 | 0.00 | 0.12 | 0.00 | 86 | 997.1 |
| 20260904221519 | 58 | 222 | 2.0 | 9.0 | 0.00 | 0.12 | 0.00 | 86 | 997.2 |
| 20260904220011 | 58 | 275 | 4.0 | 10.0 | 0.00 | 0.13 | 0.12 | 87 | 997.1 |
| 20260904214517 | 58 | 252 | 4.0 | 10.0 | 0.00 | 0.13 | 0.12 | 87 | 997.3 |
| 20260904213010 | 58 | 252 | 3.0 | 7.0 | 0.00 | 0.13 | 0.12 | 87 | 997.3 |
| 20260904211508 | 58 | 272 | 3.0 | 9.0 | 0.00 | 0.13 | 0.12 | 87 | 997.2 |
| 20260904210008 | 58 | 248 | 2.0 | 8.0 | 0.01 | 0.14 | 0.12 | 88 | 997.3 |
| 20260904204511 | 58 | 257 | 2.0 | 5.0 | 0.02 | 0.14 | 0.12 | 88 | 997.3 |
| 20260904203007 | 58 | 244 | 2.0 | 6.0 | 0.04 | 0.14 | 0.12 | 88 | 997.4 |
| 20260904201503 | 58 | 240 | 2.0 | 8.0 | 0.05 | 0.14 | 0.12 | 88 | 997.7 |
| 20260904200006 | 58 | 244 | 2.0 | 10.0 | 0.04 | 0.13 | 0.11 | 89 | 997.8 |
| 20260904194503 | 58 | 244 | 2.0 | 8.0 | 0.03 | 0.13 | 0.10 | 90 | 997.8 |
| 20260904193002 | 58 | 254 | 2.0 | 5.0 | 0.01 | 0.10 | 0.08 | 91 | 997.9 |
| 20260904191559 | 58 | 238 | 3.0 | 9.0 | 0.00 | 0.09 | 0.07 | 93 | 998.1 |
| 20260904190059 | 59 | 233 | 4.0 | 9.0 | 0.00 | 0.09 | 0.07 | 93 | 998.2 |
| 20260904184557 | 59 | 243 | 4.0 | 9.0 | 0.00 | 0.09 | 0.07 | 93 | 998.2 |
| 20260904183113 | 59 | 257 | 4.0 | 9.0 | 0.00 | 0.09 | 0.07 | 92 | 998.3 |
| 20260904181556 | 59 | 205 | 5.0 | 10.0 | 0.00 | 0.09 | 0.07 | 92 | 998.3 |
| 20260904180057 | 59 | 248 | 3.0 | 9.0 | 0.00 | 0.14 | 0.07 | 92 | 998.4 |
| 20260904174555 | 59 | 221 | 3.0 | 9.0 | 0.00 | 0.14 | 0.07 | 91 | 998.5 |
| 20260904173054 | 59 | 236 | 3.0 | 9.0 | 0.00 | 0.14 | 0.07 | 90 | 998.5 |
| 20260904171554 | 59 | 288 | 3.0 | 8.0 | 0.00 | 0.14 | 0.07 | 91 | 998.4 |